sat.trackr.live / text

‹ back to catalog

RAVAN

NORAD 41849 · 2016-067B

PAYLOAD ACTIVE UNKNOWN

§ Identity

Operator
Country
US
Launch date
2016-11-11
Launch site
AFWTR
Launch vehicle
Mass (kg)
RCS (m²)
0.04

Purposes: tech_demo

External: N2YO · Heavens-Above · Gunter

§ Orbital elements

Epoch: 2026-05-24T15:52:48.709632Z

Period
92.77 min
Inclination
97.9926°
Eccentricity
0.0007064
Mean motion
15.52208847 rev/d
Perigee alt
405.5 km
Apogee alt
415.1 km
Semi-major
6,788.4 km
B*
6.9025e-4
RAAN
31.5583°
Arg perigee
89.5706°
Mean anomaly
270.6354°
Rev number
52,404

§ Raw data

RAVAN1 41849U 16067B   26144.66167488  .00041931  00000+0  69025-3 0  99912 41849  97.9926  31.5583 0007064  89.5706 270.6354 15.52208847524041

JSON: /api/v1/satellites/41849 · /tle

For live sub-satellite position, see the globe view (requires WebGL).

§ Visibility from observer

Set your observer location to see the next 7 days of passes ≥ 10°. The values pass through the URL so the page stays shareable.

No JS? Fill the form by hand. The geolocation button needs JavaScript.